Amateur Radio Satellites - All Passes

Search period start: 24 May 2013 00:25
Search period end: 25 May 2013 00:25
Location: Mentone, 34.5413°N, 85.5351°W

Satellite Date Start Highest point End Downlink Frequencies (MHz)
Time Altitude Azimuth
RS-15 24 May 00:59:01 01:09:52 55° 54° (NE) 01:20:25 29.354 - 29.394 USB, Beacon 29.352 USB
KITSAT 1 24 May 01:14:39 01:18:34 14° 322° (NW) 01:22:31 435.175 FM
ISS 24 May 01:28:02 01:31:13 48° 133° (SE) 01:34:26 145.800 FM
Oscar 16 24 May 01:33:54 01:37:56 23° 95° (E) 01:41:55 437.025 USB, Beacon 2401.1428
AO-27 24 May 01:45:53 01:49:50 21° 95° (E) 01:53:46 436.795 MHz FM
MaSat-1 24 May 01:46:25 01:53:35 64° 294° (WNW) 01:59:33 437.345 MHz
ITAMSAT 1 24 May 01:52:01 01:56:13 24° 96° (E) 02:00:23 435.822 SSB
AO-Echo 24 May 02:27:40 02:30:40 16° 94° (E) 02:33:42 ?
Uribyol 2 24 May 02:31:58 02:37:11 66° 102° (ESE) 02:42:22 436.500 FM
Oscar 19 24 May 02:32:37 02:37:48 78° 103° (ESE) 02:42:56 437.125 CW, 437.150 USB
ISS 24 May 03:05:52 03:08:07 17° 329° (NNW) 03:10:23 145.800 FM
RS-15 24 May 03:12:04 03:21:39 37° 254° (WSW) 03:31:10 29.354 - 29.394 USB, Beacon 29.352 USB
Oscar 16 24 May 03:12:39 03:17:19 35° 289° (WNW) 03:21:57 437.025 USB, Beacon 2401.1428
AO-27 24 May 03:24:37 03:29:25 38° 289° (WNW) 03:34:13 436.795 MHz FM
ITAMSAT 1 24 May 03:31:02 03:35:43 34° 290° (WNW) 03:40:23 435.822 SSB
TMSAT-1 24 May 03:34:47 03:38:23 18° 94° (E) 03:41:58 436.925 FM
Gurwin Techsat 1B 24 May 03:56:13 04:01:20 47° 99° (E) 04:06:26 435.225 FM
Uosat F 24 May 03:58:51 04:03:50 62° 101° (ESE) 04:08:48 435.120 FM
AO-Echo 24 May 04:05:06 04:09:36 42° 287° (WNW) 04:14:11 ?
Uribyol 2 24 May 04:13:36 04:16:03 14° 297° (WNW) 04:18:31 436.500 FM
Oscar 19 24 May 04:15:09 04:16:26 11° 298° (WNW) 04:17:43 437.125 CW, 437.150 USB
Saudisat 1A 24 May 04:44:25 04:48:45 46° 115° (ESE) 04:53:09 436.775 MHz
AO-7 24 May 05:04:47 05:12:38 43° 100° (E) 05:20:25 29.400 - 29.500 MHz
TMSAT-1 24 May 05:13:27 05:18:29 46° 288° (WNW) 05:23:31 436.925 FM
Gurwin Techsat 1B 24 May 05:37:18 05:40:54 19° 294° (WNW) 05:44:30 435.225 FM
Uosat F 24 May 05:39:43 05:42:05 13° 296° (WNW) 05:44:26 435.120 FM
PCSat 24 May 06:01:04 06:05:29 26° 107° (ESE) 06:09:55 145.825 MHz
STRAND 1 24 May 06:10:14 06:15:16 67° 74° (ENE) 06:20:20 ?
Saudisat 1A 24 May 06:25:33 06:28:41 18° 311° (NW) 06:31:50 436.775 MHz
Sapphire 24 May 06:33:10 06:38:21 51° 111° (ESE) 06:43:35 437.095 MHz 1200 baud AX-25 AFSK
Oscar 10/S400 24 May 06:42:45 09:22:14 47° 261° (W) 17:00:05 145.825 - 145.975 CW/USB, Beacon 145.810 USB
AO-7 24 May 06:57:43 07:05:13 39° 296° (WNW) 07:12:43 29.400 - 29.500 MHz
KITSAT 1 24 May 07:10:50 07:18:13 37° 53° (NE) 07:25:33 435.175 FM
JAS-1B 24 May 07:34:11 07:38:44 23° 95° (E) 07:43:10 435.800 - 435.900 CW/SSB
SO-67 24 May 07:34:18 07:36:33 16° 94° (E) 07:38:48 435.3500 MHz FM
PCSat 24 May 07:43:46 07:48:42 36° 302° (WNW) 07:53:40 145.825 MHz
Hamsat 24 May 07:48:48 07:53:12 86° 283° (WNW) 07:57:35 145.90 MHz
STRAND 1 24 May 07:53:23 07:54:52 11° 268° (W) 07:56:22 ?
ISS 24 May 08:00:14 08:02:25 16° 30° (NNE) 08:04:35 145.800 FM
SO-50 24 May 08:10:52 08:15:42 86° 299° (WNW) 08:20:28 436.795 FM
Sapphire 24 May 08:18:07 08:22:04 20° 308° (NW) 08:26:02 437.095 MHz 1200 baud AX-25 AFSK
KITSAT 1 24 May 09:06:03 09:13:42 47° 251° (WSW) 09:21:19 435.175 FM
SO-67 24 May 09:07:05 09:09:58 23° 288° (WNW) 09:12:50 435.3500 MHz FM
HO-68 24 May 09:10:56 09:16:40 26° 96° (E) 09:22:23 435.675 MHz FM
JAS-1B 24 May 09:24:16 09:29:33 35° 292° (WNW) 09:34:38 435.800 - 435.900 CW/SSB
ISS 24 May 09:36:04 09:39:22 56° 226° (SW) 09:42:39 145.800 FM
PANSAT 24 May 09:50:25 09:52:41 15° 160° (SSE) 09:54:56 not established
Oscar 11 24 May 09:51:26 09:55:08 26° 97° (E) 09:58:48 145.825 FM, Beacon 2401.500 USB
SO-50 24 May 09:55:56 09:56:59 11° 316° (NW) 09:58:02 436.795 FM
JAS-2 24 May 10:16:32 10:23:10 64° 100° (E) 10:28:57 435.800 - 435.900 CW/SSB, 435.910 FM
MaSat-1 24 May 10:37:10 10:38:59 15° 56° (NE) 10:40:39 437.345 MHz
HO-68 24 May 10:57:41 11:04:34 52° 291° (WNW) 11:11:26 435.675 MHz FM
UOSAT-12 24 May 11:02:47 11:07:17 75° 300° (WNW) 11:11:49 437.025 FM, 437.400 FM
OPAL 24 May 11:08:11 11:13:11 74° 104° (ESE) 11:18:07 ?
Oscar 11 24 May 11:27:48 11:31:11 22° 290° (WNW) 11:34:35 145.825 FM, Beacon 2401.500 USB
PANSAT 24 May 11:29:07 11:32:33 29° 172° (S) 11:35:58 not established
JAS-2 24 May 12:03:06 12:07:23 18° 300° (WNW) 12:11:22 435.800 - 435.900 CW/SSB, 435.910 FM
MaSat-1 24 May 12:19:49 12:20:43 11° 259° (WSW) 12:21:35 437.345 MHz
Oscar 16 24 May 12:47:43 12:51:49 24° 68° (ENE) 12:55:55 437.025 USB, Beacon 2401.1428
OPAL 24 May 12:49:56 12:51:24 11° 299° (WNW) 12:52:53 ?
AO-27 24 May 13:00:58 13:04:59 24° 67° (ENE) 13:09:02 436.795 MHz FM
ITAMSAT 1 24 May 13:06:56 13:11:09 26° 68° (ENE) 13:15:23 435.822 SSB
PANSAT 24 May 13:09:04 13:12:33 31° 185° (S) 13:16:02 not established
Saudisat 1A 24 May 13:16:09 13:19:00 16° 48° (NE) 13:21:49 436.775 MHz
AO-Echo 24 May 13:38:15 13:41:01 15° 67° (ENE) 13:43:46 ?
Oscar 19 24 May 13:45:56 13:51:07 78° 76° (ENE) 13:56:20 437.125 CW, 437.150 USB
Uribyol 2 24 May 13:46:26 13:51:34 69° 75° (ENE) 13:56:44 436.500 FM
Oscar 16 24 May 14:26:15 14:30:57 35° 262° (W) 14:35:41 437.025 USB, Beacon 2401.1428
AO-27 24 May 14:39:35 14:44:17 35° 262° (W) 14:49:01 436.795 MHz FM
ITAMSAT 1 24 May 14:45:56 14:50:29 31° 263° (W) 14:55:05 435.822 SSB
PANSAT 24 May 14:49:47 14:52:27 18° 197° (SSW) 14:55:06 not established
TMSAT-1 24 May 14:52:24 14:56:16 21° 67° (ENE) 15:00:09 436.925 FM
PCSat 24 May 14:53:56 14:55:55 12° 47° (NE) 14:57:54 145.825 MHz
Saudisat 1A 24 May 14:54:37 14:59:00 51° 245° (WSW) 15:03:17 436.775 MHz
Uosat F 24 May 15:08:47 15:13:40 58° 74° (ENE) 15:18:35 435.120 FM
Gurwin Techsat 1B 24 May 15:13:52 15:19:00 52° 73° (ENE) 15:24:09 435.225 FM
AO-Echo 24 May 15:14:44 15:19:26 47° 260° (W) 15:24:02 ?
RS-15 24 May 15:16:36 15:28:05 51° 110° (ESE) 15:39:08 29.354 - 29.394 USB, Beacon 29.352 USB
Sapphire 24 May 15:25:25 15:29:28 21° 53° (NE) 15:33:30 437.095 MHz 1200 baud AX-25 AFSK
Uribyol 2 24 May 15:29:59 15:31:29 11° 269° (W) 15:32:58 436.500 FM
AO-7 24 May 16:00:00 16:07:38 43° 65° (ENE) 16:15:17 29.400 - 29.500 MHz
TMSAT-1 24 May 16:30:55 16:35:52 41° 261° (W) 16:40:52 436.925 FM
PCSat 24 May 16:34:40 16:40:08 86° 65° (ENE) 16:45:32 145.825 MHz
SO-50 24 May 16:46:52 16:50:56 32° 54° (NE) 16:54:56 436.795 FM
Uosat F 24 May 16:50:39 16:52:48 13° 268° (W) 16:54:57 435.120 FM
Gurwin Techsat 1B 24 May 16:56:06 16:59:14 16° 267° (W) 17:02:23 435.225 FM
Sapphire 24 May 17:07:56 17:13:09 49° 249° (WSW) 17:18:20 437.095 MHz 1200 baud AX-25 AFSK
RS-15 24 May 17:29:15 17:40:35 46° 309° (NW) 17:51:33 29.354 - 29.394 USB, Beacon 29.352 USB
AO-7 24 May 17:52:52 18:00:21 38° 261° (W) 18:07:56 29.400 - 29.500 MHz
JAS-1B 24 May 18:14:06 18:20:45 24° 65° (ENE) 18:26:42 435.800 - 435.900 CW/SSB
STRAND 1 24 May 18:24:58 18:29:28 30° 97° (E) 18:33:57 ?
SO-50 24 May 18:27:53 18:31:20 22° 250° (WSW) 18:34:45 436.795 FM
Hamsat 24 May 18:39:34 18:43:32 42° 74° (ENE) 18:47:33 145.90 MHz
UOSAT-12 24 May 19:36:01 19:40:15 35° 55° (NE) 19:44:27 437.025 FM, 437.400 FM
SO-67 24 May 19:38:42 19:42:14 70° 77° (ENE) 19:45:48 435.3500 MHz FM
HO-68 24 May 19:38:46 19:42:04 14° 57° (ENE) 19:45:21 435.675 MHz FM
RS-15 24 May 19:51:16 19:57:07 15° 339° (NNW) 20:02:53 29.354 - 29.394 USB, Beacon 29.352 USB
JAS-1B 24 May 20:01:22 20:10:45 72° 257° (WSW) 20:18:47 435.800 - 435.900 CW/SSB
STRAND 1 24 May 20:04:15 20:08:31 27° 291° (WNW) 20:12:47 ?
Hamsat 24 May 20:18:01 20:19:48 12° 268° (W) 20:21:36 145.90 MHz
JAS-2 24 May 20:23:57 20:29:51 24° 63° (ENE) 20:35:46 435.800 - 435.900 CW/SSB, 435.910 FM
Oscar 11 24 May 20:44:52 20:47:11 14° 67° (ENE) 20:49:30 145.825 FM, Beacon 2401.500 USB
UOSAT-12 24 May 21:16:44 21:20:10 21° 250° (WSW) 21:23:37 437.025 FM, 437.400 FM
HO-68 24 May 21:21:33 21:28:41 84° 73° (ENE) 21:35:51 435.675 MHz FM
KITSAT 1 24 May 21:35:14 21:42:29 39° 108° (ESE) 21:49:46 435.175 FM
JAS-1B 24 May 21:59:31 22:01:50 11° 269° (W) 22:04:06 435.800 - 435.900 CW/SSB
JAS-2 24 May 22:06:30 22:14:08 67° 259° (W) 22:21:58 435.800 - 435.900 CW/SSB, 435.910 FM
RS-15 24 May 22:11:43 22:16:54 14° 18° (NNE) 22:21:59 29.354 - 29.394 USB, Beacon 29.352 USB
Oscar 11 24 May 22:18:57 22:23:01 41° 261° (W) 22:27:07 145.825 FM, Beacon 2401.500 USB
OPAL 24 May 22:19:32 22:24:45 89° 74° (ENE) 22:29:56 ?
HO-68 24 May 23:13:39 23:17:02 14° 268° (W) 23:20:26 435.675 MHz FM
MaSat-1 24 May 23:26:35 23:27:16 10° 100° (E) 23:27:57 437.345 MHz
KITSAT 1 24 May 23:30:10 23:37:43 43° 305° (NW) 23:45:21 435.175 FM

Developed and maintained by Chris Peat, Heavens-Above GmbH. Please read the updated FAQ before sending e-mail. Imprint. DLR
